SWQ05 AYPY-AGGH

Flight info

Callsign SWQ05
Flight time 1h 49m
Altitude 35000
Route NUPTA1 NUPTA DCT KAPKI H532 KALKO B598 PAKMI PAKMI1A
Aircraft B738/M-SDE2E3FGHIRWXY/LB1

Departure

Time 2026-04-22 13:03
Airport Port Moresby Jacksons International Airport (AYPY)

Arrival

Time 2026-04-22 14:53
Airport Honiara International Airport (AGGH)
Time Latitude Longitude Altitude Speed Heading
2026-04-22 13:01 -9.43361 147.21093 77 ft 2 kts 339°
2026-04-22 13:01 -9.43306 147.21084 76 ft 12 kts
2026-04-22 13:01 -9.43237 147.21161 76 ft 18 kts 58°
2026-04-22 13:02 -9.43163 147.21282 77 ft 22 kts 58°
2026-04-22 13:02 -9.43118 147.21417 79 ft 15 kts 153°
2026-04-22 13:02 -9.43152 147.21429 80 ft 0 kts 155°
2026-04-22 13:03 -9.43162 147.21434 80 ft 16 kts 149°
2026-04-22 13:03 -9.43503 147.21651 82 ft 98 kts 148°
2026-04-22 13:03 -9.44297 147.22131 115 ft 164 kts 148°
2026-04-22 13:03 -9.45276 147.22761 953 ft 161 kts 147°
2026-04-22 13:04 -9.46255 147.23384 1753 ft 174 kts 147°
2026-04-22 13:04 -9.47388 147.24091 2094 ft 206 kts 148°
2026-04-22 13:04 -9.48685 147.24896 2319 ft 230 kts 148°
2026-04-22 13:04 -9.50086 147.25762 2763 ft 243 kts 148°
2026-04-22 13:05 -9.51594 147.26695 3107 ft 261 kts 148°
2026-04-22 13:05 -9.53167 147.27666 3855 ft 266 kts 148°
2026-04-22 13:05 -9.54654 147.28733 4755 ft 265 kts 131°
2026-04-22 13:05 -9.55716 147.30220 5758 ft 262 kts 123°
2026-04-22 13:06 -9.56741 147.31794 6346 ft 274 kts 123°
2026-04-22 13:06 -9.57788 147.33407 7130 ft 275 kts 123°
2026-04-22 13:06 -9.58857 147.35040 7817 ft 281 kts 123°
2026-04-22 13:06 -9.59956 147.36707 8486 ft 288 kts 124°
2026-04-22 13:07 -9.61082 147.38401 9234 ft 292 kts 124°
2026-04-22 13:07 -9.62226 147.40116 9958 ft 296 kts 124°
2026-04-22 13:07 -9.63399 147.41867 10437 ft 309 kts 124°
2026-04-22 13:07 -9.64660 147.43744 10590 ft 333 kts 124°
2026-04-22 13:08 -9.66001 147.45738 10775 ft 352 kts 124°
2026-04-22 13:08 -9.67400 147.47817 11236 ft 360 kts 124°
2026-04-22 13:08 -9.68820 147.49926 11896 ft 363 kts 125°
2026-04-22 13:08 -9.70246 147.52043 12540 ft 365 kts 124°
2026-04-22 13:09 -9.71685 147.54180 13131 ft 369 kts 125°
2026-04-22 13:09 -9.73141 147.56342 13710 ft 373 kts 125°
2026-04-22 13:09 -9.74612 147.58526 14240 ft 377 kts 125°
2026-04-22 13:09 -9.76096 147.60730 14767 ft 380 kts 125°
2026-04-22 13:10 -9.77592 147.62953 15273 ft 384 kts 125°
2026-04-22 13:10 -9.79107 147.65204 15740 ft 388 kts 125°
2026-04-22 13:10 -9.80634 147.67472 16302 ft 390 kts 124°
2026-04-22 13:10 -9.82153 147.69731 16813 ft 393 kts 124°
2026-04-22 13:11 -9.83699 147.72029 17297 ft 397 kts 124°
2026-04-22 13:11 -9.85257 147.74347 17781 ft 400 kts 124°
2026-04-22 13:11 -9.86833 147.76691 18237 ft 403 kts 124°
2026-04-22 13:11 -9.88419 147.79051 18641 ft 406 kts 124°
2026-04-22 13:12 -9.90014 147.81424 19061 ft 408 kts 124°
2026-04-22 13:12 -9.91620 147.83815 19488 ft 411 kts 124°
2026-04-22 13:12 -9.93235 147.86218 19893 ft 413 kts 124°
2026-04-22 13:12 -9.94861 147.88637 20260 ft 417 kts 124°
2026-04-22 13:13 -9.96543 147.91056 20622 ft 420 kts 127°
2026-04-22 13:13 -9.98295 147.93444 21010 ft 423 kts 127°
2026-04-22 13:13 -10.00071 147.95822 21469 ft 423 kts 128°
2026-04-22 13:13 -10.01853 147.98209 21789 ft 427 kts 128°
2026-04-22 13:14 -10.03629 148.00599 22113 ft 430 kts 128°
2026-04-22 13:14 -10.05429 148.03035 22503 ft 432 kts 127°
2026-04-22 13:14 -10.07234 148.05489 22867 ft 435 kts 127°
2026-04-22 13:14 -10.09051 148.07964 23189 ft 438 kts 127°
2026-04-22 13:15 -10.10873 148.10449 23577 ft 438 kts 127°
2026-04-22 13:15 -10.12696 148.12937 23854 ft 441 kts 127°
2026-04-22 13:15 -10.14535 148.15447 24097 ft 444 kts 127°
2026-04-22 13:15 -10.16381 148.17966 24402 ft 445 kts 127°
2026-04-22 13:16 -10.18226 148.20485 24710 ft 446 kts 127°
2026-04-22 13:16 -10.20060 148.22989 24996 ft 447 kts 127°
2026-04-22 13:16 -10.21923 148.25532 25255 ft 450 kts 127°
2026-04-22 13:16 -10.23574 148.28241 25484 ft 454 kts 116°
2026-04-22 13:17 -10.24670 148.31258 25746 ft 456 kts 105°
2026-04-22 13:17 -10.25207 148.34435 26007 ft 459 kts 94°
2026-04-22 13:17 -10.25339 148.37681 26270 ft 460 kts 92°
2026-04-22 13:17 -10.25419 148.40935 26496 ft 463 kts 91°
2026-04-22 13:18 -10.25488 148.44215 26722 ft 465 kts 91°
2026-04-22 13:18 -10.25564 148.47508 26954 ft 467 kts 92°
2026-04-22 13:18 -10.25653 148.50808 27178 ft 469 kts 92°
2026-04-22 13:18 -10.25752 148.54091 27400 ft 471 kts 92°
2026-04-22 13:19 -10.25861 148.57433 27625 ft 473 kts 92°
2026-04-22 13:19 -10.25974 148.60776 27855 ft 475 kts 92°
2026-04-22 13:19 -10.26089 148.64138 28071 ft 477 kts 92°
2026-04-22 13:19 -10.26205 148.67505 28280 ft 479 kts 92°
2026-04-22 13:20 -10.26322 148.70896 28485 ft 481 kts 92°
2026-04-22 13:20 -10.26438 148.74294 28686 ft 482 kts 92°
2026-04-22 13:20 -10.26553 148.77706 28871 ft 485 kts 92°
2026-04-22 13:20 -10.26669 148.81136 29037 ft 487 kts 92°
2026-04-22 13:21 -10.26784 148.84576 29235 ft 489 kts 92°
2026-04-22 13:21 -10.26899 148.88027 29431 ft 490 kts 92°
2026-04-22 13:21 -10.27014 148.91492 29620 ft 491 kts 92°
2026-04-22 13:21 -10.27129 148.94961 29856 ft 492 kts 92°
2026-04-22 13:22 -10.27243 148.98388 30123 ft 491 kts 92°
2026-04-22 13:22 -10.27356 149.01847 30386 ft 490 kts 92°
2026-04-22 13:22 -10.27470 149.05306 30641 ft 489 kts 92°
2026-04-22 13:22 -10.27583 149.08757 30835 ft 490 kts 92°
2026-04-22 13:23 -10.27696 149.12214 31050 ft 490 kts 92°
2026-04-22 13:23 -10.27808 149.15671 31315 ft 489 kts 92°
2026-04-22 13:23 -10.27920 149.19116 31605 ft 488 kts 92°
2026-04-22 13:23 -10.28031 149.22562 31877 ft 487 kts 92°
2026-04-22 13:24 -10.28142 149.25995 32126 ft 487 kts 92°
2026-04-22 13:24 -10.28252 149.29426 32396 ft 486 kts 92°
2026-04-22 13:24 -10.28362 149.32854 32676 ft 485 kts 92°
2026-04-22 13:24 -10.28471 149.36276 32954 ft 484 kts 92°
2026-04-22 13:25 -10.28580 149.39693 33224 ft 484 kts 92°
2026-04-22 13:25 -10.28688 149.43111 33512 ft 483 kts 92°
2026-04-22 13:25 -10.28796 149.46518 33809 ft 482 kts 92°
2026-04-22 13:25 -10.28903 149.49917 34059 ft 481 kts 92°
2026-04-22 13:26 -10.29009 149.53313 34295 ft 481 kts 92°
2026-04-22 13:26 -10.29115 149.56705 34509 ft 481 kts 92°
2026-04-22 13:26 -10.29219 149.60048 34732 ft 480 kts 92°
2026-04-22 13:26 -10.29325 149.63430 34951 ft 480 kts 91°
2026-04-22 13:27 -10.29430 149.66832 34943 ft 483 kts 91°
2026-04-22 13:27 -10.29639 149.73633 34950 ft 480 kts 91°
2026-04-22 13:28 -10.29846 149.80398 34944 ft 477 kts 91°
2026-04-22 13:28 -10.30051 149.87109 34953 ft 475 kts 91°
2026-04-22 13:29 -10.30252 149.93802 34960 ft 473 kts 91°
2026-04-22 13:29 -10.30453 150.00487 34954 ft 474 kts 91°
2026-04-22 13:30 -10.30652 150.07177 34958 ft 475 kts 91°
2026-04-22 13:30 -10.30850 150.13892 34958 ft 476 kts 91°
2026-04-22 13:31 -10.31048 150.20634 34951 ft 478 kts 91°
2026-04-22 13:31 -10.31244 150.27359 34951 ft 480 kts 91°
2026-04-22 13:32 -10.31441 150.34150 34949 ft 482 kts 91°
2026-04-22 13:32 -10.31308 150.40958 34949 ft 482 kts 85°
2026-04-22 13:33 -10.30738 150.47735 34945 ft 483 kts 84°
2026-04-22 13:33 -10.30137 150.54558 34942 ft 484 kts 84°
2026-04-22 13:34 -10.29587 150.61365 34937 ft 484 kts 85°
2026-04-22 13:34 -10.29065 150.68178 34939 ft 483 kts 85°
2026-04-22 13:35 -10.28550 150.74968 34926 ft 482 kts 85°
2026-04-22 13:35 -10.28032 150.81747 34929 ft 481 kts 85°
2026-04-22 13:36 -10.27516 150.88465 34931 ft 480 kts 85°
2026-04-22 13:36 -10.26995 150.95216 34927 ft 479 kts 85°
2026-04-22 13:37 -10.26474 151.01952 34930 ft 478 kts 85°
2026-04-22 13:37 -10.25952 151.08679 34932 ft 478 kts 85°
2026-04-22 13:38 -10.25515 151.14305 34928 ft 477 kts 85°
2026-04-22 13:38 -10.24728 151.24386 34928 ft 477 kts 85°
2026-04-22 13:39 -10.24206 151.31068 34929 ft 478 kts 85°
2026-04-22 13:39 -10.23678 151.37795 34939 ft 478 kts 85°
2026-04-22 13:40 -10.23149 151.44521 34924 ft 478 kts 85°
2026-04-22 13:40 -10.22618 151.51250 34925 ft 477 kts 85°
2026-04-22 13:41 -10.22087 151.57964 34920 ft 477 kts 85°
2026-04-22 13:41 -10.21556 151.64666 34924 ft 476 kts 84°
2026-04-22 13:42 -10.21024 151.71367 34918 ft 476 kts 84°
2026-04-22 13:42 -10.20493 151.78021 34919 ft 475 kts 84°
2026-04-22 13:43 -10.19959 151.84705 34918 ft 474 kts 84°
2026-04-22 13:43 -10.19425 151.91376 34918 ft 474 kts 84°
2026-04-22 13:44 -10.18890 151.98043 34909 ft 474 kts 84°
2026-04-22 13:44 -10.18352 152.04716 34917 ft 474 kts 84°
2026-04-22 13:45 -10.17813 152.11393 34915 ft 474 kts 84°
2026-04-22 13:45 -10.17273 152.18071 34915 ft 475 kts 84°
2026-04-22 13:46 -10.16734 152.24720 34915 ft 476 kts 84°
2026-04-22 13:46 -10.16190 152.31406 34914 ft 476 kts 84°
2026-04-22 13:47 -10.15642 152.38121 34913 ft 477 kts 84°
2026-04-22 13:47 -10.15081 152.44835 34914 ft 477 kts 84°
2026-04-22 13:48 -10.14516 152.51548 34914 ft 477 kts 84°
2026-04-22 13:48 -10.13954 152.58228 34910 ft 478 kts 84°
2026-04-22 13:49 -10.13388 152.64948 34913 ft 478 kts 84°
2026-04-22 13:49 -10.12821 152.71669 34910 ft 478 kts 84°
2026-04-22 13:50 -10.12252 152.78391 34907 ft 478 kts 84°
2026-04-22 13:50 -10.11682 152.85123 34903 ft 479 kts 84°
2026-04-22 13:51 -10.11108 152.91865 34910 ft 479 kts 84°
2026-04-22 13:51 -10.10534 152.98609 34908 ft 479 kts 84°
2026-04-22 13:52 -10.09958 153.05347 34905 ft 479 kts 84°
2026-04-22 13:52 -10.09385 153.12039 34899 ft 479 kts 84°
2026-04-22 13:53 -10.08808 153.18769 34903 ft 478 kts 84°
2026-04-22 13:53 -10.08229 153.25498 34904 ft 478 kts 84°
2026-04-22 13:54 -10.07650 153.32209 34909 ft 477 kts 84°
2026-04-22 13:54 -10.07070 153.38925 34909 ft 477 kts 84°
2026-04-22 13:55 -10.06490 153.45623 34904 ft 476 kts 84°
2026-04-22 13:55 -10.05910 153.52326 34906 ft 476 kts 84°
2026-04-22 13:56 -10.05330 153.59016 34905 ft 476 kts 84°
2026-04-22 13:56 -10.04749 153.65707 34902 ft 476 kts 84°
2026-04-22 13:57 -10.04167 153.72400 34905 ft 476 kts 84°
2026-04-22 13:57 -10.03583 153.79096 34906 ft 476 kts 84°
2026-04-22 13:58 -10.03000 153.85753 34903 ft 476 kts 84°
2026-04-22 13:58 -10.02412 153.92462 34903 ft 477 kts 84°
2026-04-22 13:59 -10.01824 153.99159 34903 ft 477 kts 84°
2026-04-22 13:59 -10.01233 154.05867 34905 ft 477 kts 84°
2026-04-22 14:00 -10.00642 154.12565 34907 ft 477 kts 84°
2026-04-22 14:00 -10.00053 154.19223 34909 ft 477 kts 84°
2026-04-22 14:01 -9.99459 154.25921 34907 ft 477 kts 84°
2026-04-22 14:01 -9.98862 154.32635 34906 ft 477 kts 84°
2026-04-22 14:02 -9.98265 154.39333 34908 ft 477 kts 84°
2026-04-22 14:02 -9.97667 154.46037 34904 ft 476 kts 84°
2026-04-22 14:03 -9.97067 154.52735 34904 ft 476 kts 84°
2026-04-22 14:03 -9.96467 154.59423 34903 ft 476 kts 84°
2026-04-22 14:04 -9.95870 154.66066 34902 ft 476 kts 84°
2026-04-22 14:04 -9.95264 154.72793 34903 ft 475 kts 84°
2026-04-22 14:05 -9.94666 154.79424 34903 ft 475 kts 84°
2026-04-22 14:06 -9.93758 154.89444 34905 ft 475 kts 84°
2026-04-22 14:06 -9.93153 154.96117 34904 ft 475 kts 84°
2026-04-22 14:07 -9.92547 155.02784 34911 ft 475 kts 84°
2026-04-22 14:07 -9.91943 155.09453 34903 ft 475 kts 84°
2026-04-22 14:08 -9.91338 155.16131 34904 ft 475 kts 84°
2026-04-22 14:08 -9.90733 155.22797 34907 ft 475 kts 84°
2026-04-22 14:09 -9.90126 155.29465 34909 ft 474 kts 84°
2026-04-22 14:09 -9.89522 155.36084 34904 ft 474 kts 84°
2026-04-22 14:10 -9.88913 155.42748 34901 ft 474 kts 84°
2026-04-22 14:10 -9.88302 155.49421 34906 ft 474 kts 84°
2026-04-22 14:11 -9.87689 155.56092 34906 ft 474 kts 84°
2026-04-22 14:11 -9.87076 155.62756 34903 ft 474 kts 84°
2026-04-22 14:12 -9.86462 155.69416 34903 ft 474 kts 84°
2026-04-22 14:12 -9.85850 155.76033 34904 ft 474 kts 84°
2026-04-22 14:13 -9.85233 155.82693 34904 ft 474 kts 84°
2026-04-22 14:13 -9.84615 155.89349 34904 ft 474 kts 84°
2026-04-22 14:14 -9.83996 155.96003 34904 ft 474 kts 83°
2026-04-22 14:14 -9.83375 156.02660 34905 ft 474 kts 83°
2026-04-22 14:15 -9.82753 156.09319 34908 ft 474 kts 83°
2026-04-22 14:15 -9.82130 156.15975 34900 ft 474 kts 83°
2026-04-22 14:16 -9.81510 156.22585 34904 ft 474 kts 83°
2026-04-22 14:16 -9.80884 156.29239 34906 ft 474 kts 83°
2026-04-22 14:17 -9.80258 156.35885 34903 ft 474 kts 83°
2026-04-22 14:17 -9.79630 156.42534 34905 ft 474 kts 83°
2026-04-22 14:18 -9.79001 156.49183 34904 ft 473 kts 83°
2026-04-22 14:18 -9.78371 156.55827 34904 ft 473 kts 83°
2026-04-22 14:19 -9.77740 156.62470 34899 ft 473 kts 83°
2026-04-22 14:19 -9.77107 156.69117 34903 ft 473 kts 83°
2026-04-22 14:20 -9.76155 156.79088 34903 ft 474 kts 83°
2026-04-22 14:20 -9.75522 156.85706 34903 ft 474 kts 83°
2026-04-22 14:21 -9.74565 156.95683 34901 ft 474 kts 83°
2026-04-22 14:22 -9.73604 157.05669 34900 ft 474 kts 83°
2026-04-22 14:23 -9.72750 157.14519 34899 ft 474 kts 83°
2026-04-22 14:23 -9.72105 157.21176 34899 ft 474 kts 83°
2026-04-22 14:24 -9.71461 157.27824 34903 ft 474 kts 83°
2026-04-22 14:24 -9.70815 157.34475 34900 ft 474 kts 83°
2026-04-22 14:25 -9.70173 157.41073 34899 ft 473 kts 83°
2026-04-22 14:25 -9.69525 157.47714 34902 ft 473 kts 83°
2026-04-22 14:26 -9.68876 157.54349 34905 ft 473 kts 83°
2026-04-22 14:26 -9.68226 157.60989 34900 ft 473 kts 83°
2026-04-22 14:27 -9.67574 157.67637 34897 ft 474 kts 83°
2026-04-22 14:27 -9.66934 157.74163 34875 ft 452 kts 83°
2026-04-22 14:27 -9.66632 157.77243 34874 ft 438 kts 83°
2026-04-22 14:28 -9.66334 157.80280 34775 ft 428 kts 83°
2026-04-22 14:28 -9.66035 157.83307 33993 ft 437 kts 82°
2026-04-22 14:28 -9.65723 157.86435 32793 ft 455 kts 83°
2026-04-22 14:28 -9.65402 157.89654 32054 ft 460 kts 83°
2026-04-22 14:29 -9.65084 157.92865 31669 ft 456 kts 83°
2026-04-22 14:29 -9.64771 157.96041 31382 ft 449 kts 83°
2026-04-22 14:29 -9.64462 157.99176 31022 ft 445 kts 83°
2026-04-22 14:29 -9.64153 158.02293 30599 ft 443 kts 83°
2026-04-22 14:30 -9.63845 158.05394 30168 ft 441 kts 83°
2026-04-22 14:30 -9.63538 158.08477 29727 ft 439 kts 83°
2026-04-22 14:30 -9.63233 158.11549 29294 ft 435 kts 83°
2026-04-22 14:30 -9.62930 158.14587 28874 ft 432 kts 83°
2026-04-22 14:31 -9.62631 158.17595 28447 ft 428 kts 83°
2026-04-22 14:31 -9.62331 158.20595 28020 ft 425 kts 83°
2026-04-22 14:31 -9.62039 158.23525 27594 ft 423 kts 83°
2026-04-22 14:31 -9.61740 158.26513 27164 ft 420 kts 83°
2026-04-22 14:32 -9.61451 158.29407 26777 ft 417 kts 83°
2026-04-22 14:32 -9.61159 158.32318 26384 ft 414 kts 84°
2026-04-22 14:32 -9.60870 158.35210 25994 ft 411 kts 84°
2026-04-22 14:32 -9.60611 158.38085 25606 ft 409 kts 85°
2026-04-22 14:33 -9.60425 158.40953 25216 ft 406 kts 86°
2026-04-22 14:33 -9.60270 158.43800 24854 ft 403 kts 86°
2026-04-22 14:33 -9.60121 158.46630 24488 ft 401 kts 86°
2026-04-22 14:33 -9.59970 158.49441 24127 ft 398 kts 86°
2026-04-22 14:34 -9.59815 158.52237 23777 ft 396 kts 86°
2026-04-22 14:34 -9.59655 158.55013 23410 ft 394 kts 86°
2026-04-22 14:34 -9.59493 158.57777 23004 ft 391 kts 86°
2026-04-22 14:34 -9.59330 158.60516 22627 ft 387 kts 86°
2026-04-22 14:35 -9.59168 158.63231 22249 ft 384 kts 86°
2026-04-22 14:35 -9.59005 158.65931 21854 ft 382 kts 86°
2026-04-22 14:35 -9.58844 158.68607 21473 ft 379 kts 86°
2026-04-22 14:35 -9.58685 158.71233 21120 ft 376 kts 86°
2026-04-22 14:36 -9.58526 158.73871 20716 ft 375 kts 86°
2026-04-22 14:36 -9.58367 158.76495 20410 ft 371 kts 86°
2026-04-22 14:36 -9.58210 158.79094 20046 ft 368 kts 85°
2026-04-22 14:36 -9.58053 158.81685 19650 ft 368 kts 86°
2026-04-22 14:37 -9.57897 158.84250 19411 ft 362 kts 85°
2026-04-22 14:37 -9.57742 158.86788 19033 ft 360 kts 85°
2026-04-22 14:37 -9.57588 158.89312 18729 ft 357 kts 85°
2026-04-22 14:37 -9.57436 158.91806 18439 ft 353 kts 85°
2026-04-22 14:38 -9.57286 158.94283 18094 ft 351 kts 85°
2026-04-22 14:38 -9.57136 158.96744 17728 ft 348 kts 85°
2026-04-22 14:38 -9.56986 158.99183 17350 ft 346 kts 85°
2026-04-22 14:38 -9.56838 159.01611 16980 ft 344 kts 85°
2026-04-22 14:39 -9.56690 159.04028 16618 ft 342 kts 85°
2026-04-22 14:39 -9.56541 159.06428 16253 ft 340 kts 85°
2026-04-22 14:39 -9.56394 159.08812 15905 ft 338 kts 85°
2026-04-22 14:40 -9.56105 159.13513 15211 ft 334 kts 84°
2026-04-22 14:40 -9.55962 159.15858 14874 ft 333 kts 84°
2026-04-22 14:40 -9.55818 159.18190 14536 ft 331 kts 85°
2026-04-22 14:40 -9.55675 159.20515 14203 ft 329 kts 85°
2026-04-22 14:41 -9.55532 159.22822 13880 ft 327 kts 84°
2026-04-22 14:41 -9.55389 159.25118 13542 ft 326 kts 85°
2026-04-22 14:41 -9.55247 159.27402 13179 ft 324 kts 85°
2026-04-22 14:41 -9.55107 159.29671 12836 ft 321 kts 85°
2026-04-22 14:42 -9.54966 159.31930 12487 ft 320 kts 85°
2026-04-22 14:42 -9.54827 159.34172 12143 ft 318 kts 85°
2026-04-22 14:42 -9.54690 159.36371 11814 ft 316 kts 85°
2026-04-22 14:42 -9.54552 159.38584 11486 ft 314 kts 85°
2026-04-22 14:43 -9.54415 159.40777 11279 ft 308 kts 85°
2026-04-22 14:43 -9.54283 159.42902 11206 ft 297 kts 85°
2026-04-22 14:43 -9.54155 159.44963 11078 ft 289 kts 85°
2026-04-22 14:43 -9.54028 159.46988 10858 ft 285 kts 85°
2026-04-22 14:44 -9.53902 159.48993 10564 ft 284 kts 85°
2026-04-22 14:44 -9.53776 159.50989 10273 ft 283 kts 85°
2026-04-22 14:44 -9.53651 159.52975 10017 ft 282 kts 85°
2026-04-22 14:44 -9.53528 159.54930 9765 ft 280 kts 85°
2026-04-22 14:45 -9.53405 159.56894 9473 ft 279 kts 85°
2026-04-22 14:45 -9.53282 159.58853 9164 ft 278 kts 85°
2026-04-22 14:45 -9.53159 159.60801 8870 ft 277 kts 85°
2026-04-22 14:45 -9.53049 159.62750 8575 ft 275 kts 85°
2026-04-22 14:46 -9.52946 159.64684 8265 ft 274 kts 85°
2026-04-22 14:46 -9.52843 159.66612 7974 ft 273 kts 85°
2026-04-22 14:46 -9.52741 159.68531 7710 ft 272 kts 85°
2026-04-22 14:46 -9.52638 159.70440 7445 ft 271 kts 85°
2026-04-22 14:47 -9.52535 159.72341 7175 ft 270 kts 85°
2026-04-22 14:47 -9.52434 159.74226 6886 ft 266 kts 85°
2026-04-22 14:47 -9.52332 159.76095 6460 ft 265 kts 85°
2026-04-22 14:47 -9.52230 159.77961 6026 ft 265 kts 85°
2026-04-22 14:48 -9.52129 159.79803 5729 ft 258 kts 85°
2026-04-22 14:48 -9.52033 159.81591 5444 ft 250 kts 85°
2026-04-22 14:48 -9.51778 159.83303 5131 ft 244 kts 68°
2026-04-22 14:48 -9.51125 159.84835 4844 ft 239 kts 65°
2026-04-22 14:49 -9.50477 159.86389 4458 ft 239 kts 67°
2026-04-22 14:49 -9.49847 159.87948 4093 ft 239 kts 68°
2026-04-22 14:49 -9.49218 159.89516 3723 ft 242 kts 68°
2026-04-22 14:49 -9.48586 159.91090 3346 ft 239 kts 68°
2026-04-22 14:50 -9.47977 159.92607 3004 ft 225 kts 68°
2026-04-22 14:50 -9.47407 159.94026 2649 ft 211 kts 68°
2026-04-22 14:50 -9.46873 159.95357 2326 ft 197 kts 68°
2026-04-22 14:50 -9.46373 159.96600 2030 ft 184 kts 68°
2026-04-22 14:51 -9.45907 159.97760 1742 ft 171 kts 68°
2026-04-22 14:51 -9.45481 159.98825 1503 ft 158 kts 69°
2026-04-22 14:51 -9.45080 159.99824 1244 ft 149 kts 69°
2026-04-22 14:51 -9.44690 160.00793 1025 ft 149 kts 68°
2026-04-22 14:52 -9.44306 160.01751 792 ft 147 kts 68°
2026-04-22 14:52 -9.43925 160.02702 565 ft 144 kts 68°
2026-04-22 14:52 -9.43534 160.03621 269 ft 140 kts 68°
2026-04-22 14:52 -9.43188 160.04509 55 ft 133 kts 68°
2026-04-22 14:53 -9.42891 160.05250 30 ft 84 kts 68°
2026-04-22 14:53 -9.42757 160.05600 28 ft 26 kts 69°
2026-04-22 14:53 -9.42726 160.05678 27 ft 27 kts 68°
2026-04-22 14:55 -9.42702 160.05737 28 ft 28 kts 68°
2026-04-22 14:56 -9.42630 160.05914 24 ft 26 kts 68°
2026-04-22 14:56 -9.42564 160.06079 26 ft 25 kts 68°
2026-04-22 14:56 -9.42500 160.06233 25 ft 23 kts 66°
2026-04-22 14:56 -9.42455 160.06333 27 ft 10 kts 169°
2026-04-22 14:57 -9.42489 160.06279 24 ft 10 kts 248°
2026-04-22 14:57 -9.42522 160.06192 28 ft 17 kts 249°
2026-04-22 14:57 -9.42572 160.06061 25 ft 23 kts 249°
2026-04-22 14:57 -9.42639 160.05895 24 ft 28 kts 246°
2026-04-22 14:58 -9.42718 160.05698 27 ft 32 kts 248°
2026-04-22 14:58 -9.42806 160.05479 29 ft 35 kts 248°
2026-04-22 14:58 -9.42902 160.05241 31 ft 38 kts 248°
2026-04-22 14:58 -9.42982 160.05037 31 ft 25 kts 249°
2026-04-22 14:59 -9.43025 160.04897 32 ft 11 kts 299°
2026-04-22 14:59 -9.42952 160.04856 33 ft 14 kts 331°
2026-04-22 14:59 -9.42917 160.04829 32 ft 0 kts 327°